Location: Bratislava
(48.1500°N, 17.1170°E)
Time: 17:35:19
(UTC+01:00)

N. Korean satellite - Pass Details

Date: 25 January 2019
Orbit: 457 x 510 km, 97.2° (Epoch: 18 February)

Event Time Altitude Azimuth Distance (km) Brightness Sun altitude
Rises 05:21:49 0° 24° (NNE) 2,617 10.5 -21.0°
Reaches altitude 10° 05:24:16 10° 40° (NE) 1,718 9.8 -20.6°
Maximum altitude 05:27:13 22° 93° (E) 1,119 9.3 -20.1°
Drops below altitude 10° 05:30:08 10° 146° (SSE) 1,684 9.8 -19.6°
Sets 05:32:30 0° 162° (SSE) 2,549 10.6 -19.2°
